Change the Weather History Date:

Sunday, December 2, 2012

  Actual Average Record
Temperature  
Mean Temperature 56 °F 52 °F  
Max Temperature 64 °F 61 °F 75 °F (1958)
Min Temperature 48 °F 44 °F 32 °F (1948)
Degree Days  
Heating Degree Days 9    
Month to date heating degree days 12  
Since 1 July heating degree days 342  
Cooling Degree Days 0    
Month to date cooling degree days 0  
Year to date cooling degree days 321  
Growing Degree Days 7 (Base 50)    
Moisture  
Dew Point 54 °F    
Average Humidity 82    
Maximum Humidity 100    
Minimum Humidity 64    
Precipitation  
Precipitation 0.84 in 0.07 in 1.25 in (2014)
Month to date precipitation 0.94 0.13  
Year to date precipitation 9.94 12.25  
Since 1 July precipitation 4.43 2.62  
Sea Level Pressure  
Sea Level Pressure 29.95 in    
Wind  
Wind Speed 5 mph (SSW)    
Max Wind Speed 25 mph    
Max Gust Speed 32 mph    
Visibility 8 miles    
Events Rain    
T = Trace of Precipitation, MM = Missing Value Source: NWS Daily Summary

Daily Weather History Graph

Daily Weather History Graph

Search for Another Location

Airport or City:

Trip Planner

Search our weather history database for the weather conditions in past years. The results will help you decide how hot, cold, wet, or windy it might be!

Date:

Astronomy

Dec. 02, 2012 Rise Set
Actual Time 7:05 AM PST 4:50 PM PST
Civil Twilight 6:36 AM PST 5:19 PM PST
Nautical Twilight 6:04 AM PST 5:51 PM PST
Astronomical Twilight 5:32 AM PST 6:23 PM PST
Moon 8:40 PM PST (12/2) 10:00 AM PST (12/2)
Length of Visible Light 10h 42m
Length of Day
9h 44m
Waning Gibbous, 85% of the Moon is Illuminated
Dec 2
Waning Gibbous
Dec 6
Last Quarter
Dec 13
New
Dec 19
First Quarter
Dec 28
Full

Hourly Weather History & Observations

Time (PST) Temp. Dew Point Humidity Pressure Visibility Wind Dir Wind Speed Gust Speed Precip Events Conditions
12:56 AM 61.0 °F 57.0 °F 87% 29.91 in 10.0 mi SSE 9.2 mph - 0.00 in Rain Light Rain
1:56 AM 61.0 °F 57.9 °F 90% 29.91 in 10.0 mi SSE 11.5 mph 17.3 mph 0.01 in Rain Light Rain
2:31 AM 62.6 °F 57.2 °F 82% 29.90 in 10.0 mi SSE 9.2 mph - 0.00 in Rain Light Rain
2:56 AM 62.1 °F 59.0 °F 90% 29.91 in 5.0 mi SSE 6.9 mph - 0.01 in Rain Light Rain
3:56 AM 62.1 °F 59.0 °F 90% 29.89 in 10.0 mi Calm Calm - 0.02 in   Overcast
4:19 AM 62.6 °F 57.2 °F 82% 29.87 in 10.0 mi SSE 6.9 mph - 0.00 in   Overcast
4:56 AM 63.0 °F 57.0 °F 81% 29.86 in 10.0 mi SE 9.2 mph - 0.00 in   Overcast
5:56 AM 63.0 °F 57.0 °F 81% 29.84 in 10.0 mi SE 15.0 mph 21.9 mph 0.00 in Rain Light Rain
6:36 AM 62.6 °F 57.2 °F 82% 29.81 in 7.0 mi Variable 4.6 mph 18.4 mph 0.02 in Rain Rain
6:56 AM 62.1 °F 59.0 °F 90% 29.83 in 7.0 mi SE 4.6 mph - 0.06 in Rain Rain
7:56 AM 64.0 °F 59.0 °F 84% 29.83 in 3.0 mi South 6.9 mph - 0.14 in Rain Rain
8:25 AM 64.4 °F 59.0 °F 83% 29.82 in 2.5 mi South 6.9 mph 17.3 mph 0.09 in Rain Rain
8:56 AM 64.0 °F 59.0 °F 84% 29.86 in 1.8 mi Variable 4.6 mph - 0.25 in Rain Heavy Rain
9:06 AM 60.8 °F 55.4 °F 82% 29.87 in 1.0 mi WNW 13.8 mph 32.2 mph 0.14 in Rain Heavy Rain
9:18 AM 57.2 °F 55.4 °F 94% 29.89 in 1.5 mi West 8.1 mph 19.6 mph 0.22 in Rain Rain
9:29 AM 57.2 °F 57.2 °F 100% 29.90 in 2.5 mi West 5.8 mph - 0.24 in Rain Rain
9:45 AM 57.2 °F 57.2 °F 100% 29.91 in 3.0 mi West 4.6 mph - 0.27 in Rain Rain
9:56 AM 57.9 °F 57.9 °F 100% 29.92 in 3.0 mi Calm Calm - 0.29 in Rain Light Rain
10:56 AM 57.9 °F 55.9 °F 93% 29.95 in 7.0 mi ENE 3.5 mph - 0.06 in Rain Light Rain
11:56 AM 60.1 °F 55.0 °F 83% 29.96 in 10.0 mi WSW 6.9 mph - 0.00 in   Overcast
12:56 PM 62.1 °F 53.1 °F 72% 29.96 in 10.0 mi Variable 5.8 mph - N/A   Overcast
1:27 PM 59.0 °F 53.6 °F 82% 29.97 in 9.0 mi NW 8.1 mph - 0.00 in Rain Light Rain
1:56 PM 60.1 °F 52.0 °F 75% 29.99 in 10.0 mi NNW 10.4 mph - 0.00 in   Mostly Cloudy
2:06 PM 60.8 °F 51.8 °F 72% 29.98 in 10.0 mi NW 10.4 mph - N/A   Scattered Clouds
2:56 PM 61.0 °F 48.9 °F 64% 30.01 in 10.0 mi NNW 6.9 mph - N/A   Clear
3:56 PM 59.0 °F 48.9 °F 69% 30.03 in 10.0 mi North 8.1 mph - N/A   Scattered Clouds
4:56 PM 57.0 °F 48.0 °F 72% 30.04 in 10.0 mi Calm Calm - N/A   Clear
5:56 PM 55.0 °F 48.0 °F 77% 30.04 in 10.0 mi Calm Calm - N/A   Clear
6:56 PM 53.1 °F 48.0 °F 83% 30.06 in 10.0 mi SSW 4.6 mph - N/A   Clear
7:56 PM 51.1 °F 46.9 °F 86% 30.08 in 10.0 mi Calm Calm - N/A   Clear
8:56 PM 50.0 °F 46.9 °F 89% 30.09 in 10.0 mi SSW 3.5 mph - N/A   Partly Cloudy
9:56 PM 50.0 °F 46.9 °F 89% 30.11 in 10.0 mi Calm Calm - N/A   Clear
10:56 PM 50.0 °F 46.9 °F 89% 30.14 in 10.0 mi Calm Calm - N/A   Clear
11:56 PM 50.0 °F 46.0 °F 86% 30.14 in 10.0 mi South 4.6 mph - N/A   Clear